| time (UTC) | temp F | wind direction | speed MPH | gust MPH | rain 1hr in | rain 24hr in | rain mn in | humidity % | barometer mb |
| 20260508050059 | 37 | 42 | 2.0 | 0.0 | 0.00 | 0.00 | 0.02 | 92 | 1020.8 |
| 20260508044602 | 37 | 40 | 1.0 | 0.0 | 0.00 | 0.00 | 0.02 | 92 | 1020.6 |
| 20260508043054 | 37 | 42 | 1.0 | 0.0 | 0.00 | 0.00 | 0.02 | 92 | 1020.4 |
| 20260508041558 | 37 | 42 | 1.0 | 0.0 | 0.00 | 0.00 | 0.02 | 92 | 1020.4 |
| 20260508040056 | 36 | 65 | 1.0 | 0.0 | 0.00 | 0.00 | 0.02 | 93 | 1020.3 |
| 20260508034600 | 36 | 72 | 1.0 | 0.0 | 0.00 | 0.00 | 0.02 | 92 | 1020.3 |
| 20260508033049 | 35 | 71 | 1.0 | 0.0 | 0.00 | 0.00 | 0.02 | 92 | 1020.2 |
| 20260508031558 | 35 | 83 | 1.0 | 0.0 | 0.00 | 0.00 | 0.02 | 92 | 1020.0 |
| 20260508030106 | 35 | 100 | 2.0 | 0.0 | 0.00 | 0.00 | 0.02 | 92 | 1020.0 |
| 20260508024547 | 35 | 240 | 0.0 | 0.0 | 0.00 | 0.00 | 0.00 | 92 | 1020.1 |
| 20260508023048 | 35 | 240 | 0.0 | 0.0 | 0.00 | 0.00 | 0.00 | 92 | 1019.7 |
| 20260508021546 | 34 | 240 | 0.0 | 0.0 | 0.00 | 0.00 | 0.00 | 91 | 1019.9 |
| 20260508020043 | 34 | 241 | 0.0 | 0.0 | 0.00 | 0.00 | 0.00 | 91 | 1019.9 |
| 20260508014542 | 35 | 242 | 0.0 | 0.0 | 0.00 | 0.00 | 0.00 | 91 | 1019.6 |
| 20260508013040 | 35 | 242 | 0.0 | 0.0 | 0.00 | 0.00 | 0.00 | 91 | 1019.4 |
| 20260508011540 | 34 | 244 | 0.0 | 0.0 | 0.00 | 0.00 | 0.00 | 91 | 1019.4 |
| 20260508010042 | 34 | 244 | 0.0 | 0.0 | 0.00 | 0.00 | 0.00 | 90 | 1019.4 |
| 20260508004534 | 35 | 244 | 0.0 | 0.0 | 0.00 | 0.00 | 0.00 | 90 | 1019.1 |
| 20260508003033 | 36 | 244 | 0.0 | 0.0 | 0.00 | 0.00 | 0.00 | 90 | 1019.2 |
| 20260508001535 | 36 | 244 | 0.0 | 0.0 | 0.00 | 0.00 | 0.00 | 90 | 1019.1 |
| 20260508000031 | 36 | 244 | 0.0 | 0.0 | 0.00 | 0.00 | 0.00 | 90 | 1018.8 |
| 20260507234535 | 36 | 246 | 0.0 | 0.0 | 0.00 | 0.00 | 0.00 | 90 | 1018.7 |
| 20260507233027 | 36 | 237 | 0.0 | 0.0 | 0.00 | 0.00 | 0.00 | 90 | 1018.7 |
| 20260507231525 | 36 | 252 | 2.0 | 0.0 | 0.00 | 0.00 | 0.00 | 91 | 1018.6 |
| 20260507230022 | 35 | 89 | 1.0 | 0.0 | 0.00 | 0.00 | 0.00 | 90 | 1018.3 |
| 20260507224526 | 36 | 72 | 0.0 | 0.0 | 0.00 | 0.00 | 0.00 | 89 | 1018.3 |
| 20260507223017 | 36 | 72 | 1.0 | 0.0 | 0.00 | 0.00 | 0.00 | 89 | 1018.1 |
| 20260507221518 | 37 | 84 | 2.0 | 0.0 | 0.00 | 0.00 | 0.00 | 90 | 1017.8 |
| 20260507220013 | 36 | 360 | 0.0 | 0.0 | 0.00 | 0.00 | 0.06 | 88 | 1017.6 |
| 20260507214510 | 36 | 360 | 0.0 | 0.0 | 0.00 | 0.00 | 0.06 | 88 | 1017.8 |
| 20260507213018 | 36 | 360 | 0.0 | 0.0 | 0.00 | 0.00 | 0.06 | 88 | 1017.7 |
| 20260507211508 | 36 | 360 | 0.0 | 0.0 | 0.00 | 0.00 | 0.06 | 88 | 1017.6 |
| 20260507210023 | 36 | 309 | 0.0 | 0.0 | 0.00 | 0.00 | 0.06 | 86 | 1017.5 |
| 20260507204507 | 37 | 309 | 0.0 | 0.0 | 0.00 | 0.00 | 0.06 | 86 | 1017.4 |
| 20260507203010 | 38 | 309 | 0.0 | 0.0 | 0.00 | 0.00 | 0.06 | 85 | 1017.2 |
| 20260507201513 | 39 | 308 | 0.0 | 0.0 | 0.00 | 0.00 | 0.06 | 84 | 1017.0 |
| 20260507200011 | 39 | 308 | 0.0 | 0.0 | 0.00 | 0.00 | 0.06 | 84 | 1016.9 |
| 20260507194502 | 39 | 309 | 0.0 | 0.0 | 0.00 | 0.00 | 0.06 | 84 | 1016.8 |
| 20260507193132 | 39 | 309 | 0.0 | 0.0 | 0.00 | 0.00 | 0.06 | 85 | 1016.6 |
| 20260507191603 | 39 | 311 | 2.0 | 0.0 | 0.00 | 0.00 | 0.06 | 84 | 1016.4 |
| 20260507190059 | 39 | 279 | 3.0 | 0.0 | 0.00 | 0.00 | 0.06 | 83 | 1016.5 |
| 20260507184559 | 40 | 262 | 0.0 | 0.0 | 0.00 | 0.00 | 0.06 | 81 | 1016.5 |
| 20260507183102 | 41 | 304 | 0.0 | 0.0 | 0.00 | 0.00 | 0.06 | 80 | 1016.1 |
| 20260507181555 | 41 | 293 | 1.0 | 0.0 | 0.00 | 0.00 | 0.06 | 80 | 1016.1 |
| 20260507180057 | 41 | 308 | 1.0 | 0.0 | 0.00 | 0.00 | 0.06 | 79 | 1015.7 |
| 20260507174600 | 42 | 289 | 1.0 | 0.0 | 0.00 | 0.00 | 0.06 | 77 | 1015.9 |
| 20260507173128 | 42 | 239 | 2.0 | 0.0 | 0.00 | 0.00 | 0.06 | 76 | 1015.6 |
| 20260507171551 | 43 | 227 | 2.0 | 0.0 | 0.00 | 0.00 | 0.06 | 74 | 1015.6 |
| 20260507170053 | 43 | 229 | 3.0 | 0.0 | 0.00 | 0.00 | 0.06 | 74 | 1015.5 |
| 20260507164557 | 45 | 228 | 2.0 | 0.0 | 0.00 | 0.00 | 0.06 | 74 | 1015.5 |
| 20260507163049 | 44 | 240 | 2.0 | 0.0 | 0.00 | 0.00 | 0.06 | 76 | 1015.3 |
| 20260507161603 | 43 | 306 | 2.0 | 0.0 | 0.00 | 0.00 | 0.06 | 80 | 1015.3 |
| 20260507154548 | 41 | 299 | 3.0 | 0.0 | 0.00 | 0.00 | 0.06 | 80 | 1015.5 |
| 20260507153047 | 42 | 299 | 3.0 | 0.0 | 0.00 | 0.00 | 0.06 | 79 | 1015.4 |
| 20260507151546 | 42 | 252 | 7.0 | 0.0 | 0.00 | 0.00 | 0.06 | 79 | 1015.4 |
| 20260507150045 | 42 | 199 | 3.0 | 0.0 | 0.00 | 0.00 | 0.06 | 78 | 1015.3 |
| 20260507144556 | 42 | 254 | 3.0 | 0.0 | 0.00 | 0.00 | 0.06 | 78 | 1015.3 |
| 20260507143045 | 42 | 279 | 5.0 | 0.0 | 0.00 | 0.00 | 0.06 | 78 | 1015.1 |
| 20260507141542 | 43 | 258 | 5.0 | 0.0 | 0.00 | 0.00 | 0.06 | 78 | 1015.0 |
| 20260507140042 | 44 | 216 | 4.0 | 0.0 | 0.00 | 0.00 | 0.06 | 77 | 1014.8 |
| 20260507134539 | 44 | 249 | 3.0 | 0.0 | 0.00 | 0.00 | 0.06 | 75 | 1014.6 |
| 20260507133040 | 46 | 280 | 3.0 | 0.0 | 0.00 | 0.00 | 0.06 | 73 | 1014.5 |
| 20260507131537 | 47 | 242 | 4.0 | 0.0 | 0.00 | 0.00 | 0.06 | 74 | 1014.6 |
| 20260507130039 | 46 | 224 | 4.0 | 0.0 | 0.00 | 0.00 | 0.06 | 76 | 1014.4 |
| 20260507124531 | 45 | 255 | 5.0 | 0.0 | 0.00 | 0.00 | 0.06 | 75 | 1014.4 |
| 20260507123039 | 43 | 243 | 4.0 | 0.0 | 0.00 | 0.00 | 0.06 | 78 | 1014.3 |
| 20260507121529 | 44 | 246 | 3.0 | 0.0 | 0.00 | 0.00 | 0.06 | 83 | 1014.3 |
| 20260507120029 | 42 | 304 | 2.0 | 0.0 | 0.00 | 0.00 | 0.06 | 86 | 1014.4 |
| 20260507114527 | 40 | 296 | 1.0 | 0.0 | 0.00 | 0.00 | 0.06 | 86 | 1014.2 |
| 20260507113028 | 40 | 277 | 6.0 | 0.0 | 0.00 | 0.00 | 0.06 | 83 | 1014.1 |
| 20260507111525 | 42 | 244 | 6.0 | 0.0 | 0.00 | 0.00 | 0.05 | 81 | 1013.7 |
| 20260507110029 | 44 | 252 | 1.0 | 0.0 | 0.00 | 0.00 | 0.05 | 79 | 1013.5 |
| 20260507104523 | 42 | 182 | 2.0 | 0.0 | 0.00 | 0.00 | 0.05 | 83 | 1013.5 |
| 20260507103023 | 43 | 191 | 4.0 | 0.0 | 0.00 | 0.00 | 0.03 | 78 | 1013.5 |
| 20260507101520 | 44 | 236 | 4.0 | 0.0 | 0.00 | 0.00 | 0.03 | 81 | 1013.3 |
| 20260507100022 | 43 | 227 | 2.0 | 0.0 | 0.00 | 0.00 | 0.03 | 77 | 1013.3 |
| 20260507094520 | 43 | 192 | 3.0 | 0.0 | 0.00 | 0.00 | 0.03 | 76 | 1013.1 |
| 20260507093015 | 44 | 276 | 3.0 | 0.0 | 0.00 | 0.00 | 0.03 | 73 | 1013.0 |
| 20260507091513 | 45 | 248 | 2.0 | 0.0 | 0.00 | 0.00 | 0.03 | 71 | 1013.0 |
| 20260507090013 | 45 | 194 | 2.0 | 0.0 | 0.00 | 0.00 | 0.03 | 73 | 1012.8 |
| 20260507084513 | 44 | 212 | 2.0 | 0.0 | 0.00 | 0.00 | 0.03 | 74 | 1012.6 |
| 20260507083006 | 45 | 291 | 1.0 | 0.0 | 0.00 | 0.00 | 0.03 | 70 | 1012.5 |
| 20260507081504 | 45 | 277 | 0.0 | 0.0 | 0.00 | 0.00 | 0.03 | 69 | 1012.3 |
| 20260507080001 | 43 | 277 | 0.0 | 0.0 | 0.00 | 0.00 | 0.03 | 73 | 1012.3 |
| 20260507074601 | 42 | 280 | 1.0 | 0.0 | 0.00 | 0.00 | 0.03 | 74 | 1012.2 |
| 20260507073057 | 42 | 280 | 1.0 | 0.0 | 0.00 | 0.00 | 0.03 | 73 | 1012.0 |
| 20260507071554 | 44 | 266 | 1.0 | 0.0 | 0.00 | 0.00 | 0.03 | 74 | 1011.9 |
| 20260507070055 | 43 | 238 | 0.0 | 0.0 | 0.00 | 0.00 | 0.03 | 74 | 1011.8 |
| 20260507064606 | 44 | 236 | 0.0 | 0.0 | 0.00 | 0.00 | 0.03 | 76 | 1011.7 |
| 20260507063052 | 43 | 126 | 2.0 | 0.0 | 0.00 | 0.00 | 0.03 | 76 | 1011.5 |
| 20260507061545 | 42 | 137 | 3.0 | 0.0 | 0.00 | 0.00 | 0.03 | 76 | 1011.5 |
| 20260507060043 | 42 | 125 | 2.0 | 0.0 | 0.00 | 0.00 | 0.03 | 78 | 1011.5 |
| 20260507054543 | 41 | 121 | 4.0 | 0.0 | 0.00 | 0.00 | 0.03 | 80 | 1011.3 |
| 20260507053039 | 41 | 143 | 1.0 | 0.0 | 0.00 | 0.00 | 0.03 | 82 | 1011.1 |
| 20260507051535 | 39 | 136 | 4.0 | 0.0 | 0.00 | 0.00 | 0.03 | 84 | 1010.9 |